Regional Weather Roundup
Issued by NWS

Home | Current Version | Previous Version | Graphics & Text | Print | Product List | Glossary On
Versions: 1 2 3 4 5 6 7 8 9 10 11 12 13 14 15 16 17 18 19 20 21 22 23 24 25 26 27 28 29 30 31 32 33 34 35 36 37 38 39 40 41 42 43 44 45 46 47 48 49 50
000
ASUS43 KBIS 100010
RWRND

NORTH DAKOTA REGIONAL WEATHER ROUNDUP
NATIONAL WEATHER SERVICE BISMARCK ND
600 PM CST SAT DEC 09 2017

NOTE: "FAIR" INDICATES FEW OR NO CLOUDS BELOW 12,000 FEET WITH NO
SIGNIFICANT WEATHER AND/OR OBSTRUCTIONS TO VISIBILITY.


NDZ001>003-009>011-017-100100-
NORTHWEST NORTH DAKOTA

CITY           SKY/WX    TMP DP  RH WIND       PRES   REMARKS
WILLISTON      CLEAR     42  24  49 W12       30.00F
6HR MIN TEMP:  36; 6HR MAX TEMP:  48;

MINOT          CLEAR     40  24  53 W25G31    29.86R
MINOT AFB      CLEAR     39  24  56 NW23G31   29.85R
$$

NDZ018>021-031>035-040>046-100100-
SOUTHWEST NORTH DAKOTA

CITY           SKY/WX    TMP DP  RH WIND       PRES   REMARKS
BISMARCK       CLEAR     40  27  59 W14       29.93S
6HR MIN TEMP:  33; 6HR MAX TEMP:  43;

DICKINSON      CLEAR     40  24  53 W20       29.99R
GARRISON         N/A     39  25  57 W18       29.89S
6HR MIN TEMP:  35; 6HR MAX TEMP:  42;

HETTINGER ARPT CLEAR     43  19  38 NW22      30.04S
$$

NDZ004>008-012>016-024-026-027-054-100100-
NORTHEAST NORTH DAKOTA

CITY           SKY/WX    TMP DP  RH WIND       PRES   REMARKS
GRAND FORKS    MOCLDY    28  24  85 S9        29.78S WCI  19
GRND FRKS AFB  PTCLDY    30  23  76 W8        29.76F
DEVILS LAKE    CLEAR     36  24  62 W23       29.77F
$$

NDZ022-023-025-028>030-036>039-047>053-100100-
SOUTHEAST NORTH DAKOTA

CITY           SKY/WX    TMP DP  RH WIND       PRES   REMARKS
FARGO          CLOUDY    27  22  81 S15       29.86F WCI  15
6HR MIN TEMP:  19; 6HR MAX TEMP:  28;

JAMESTOWN      CLOUDY    32  23  69 W17       29.82F
$$





USA.gov is the U.S. government's official web portal to all federal, state and local government web resources and services.